{"data":{"norad_id":57187,"epoch":"2026-09-19T22:13:58.336032Z","epoch_age_seconds":64208,"freshness":"FRESH","line1":"1 57187U 23091X   26262.92636963  .00006011  00000+0  22260-3 0  9997","line2":"2 57187  97.4993 327.3113 0010492 115.5756 244.6569 15.27988197178770","mean_motion":15.27988197,"eccentricity":0.0010492,"inclination_deg":97.4993,"raan_deg":327.3113,"arg_perigee_deg":115.5756,"mean_anomaly_deg":244.6569,"bstar":0.0002226,"rev_number":17877,"period_min":94.241565663089,"perigee_km":474.62960517808,"apogee_km":489.02455380248,"semimajor_km":6859.9640794903,"source":"CELESTRAK","updated_at":"2026-09-20T09:00:45.238278Z"}}